TimeMST,TemperatureF,Dew PointF,Humidity,Sea Level PressureIn,VisibilityMPH,Wind Direction,Wind SpeedMPH,Gust SpeedMPH,PrecipitationIn,Events,Conditions,WindDirDegrees,DateUTC
12:51 AM,48.0,28.0,46,30.01,10.0,East,6.9,-,N/A,,Clear,80,2013-02-26 07:51:00
1:51 AM,46.0,27.0,47,30.01,10.0,East,8.1,-,N/A,,Clear,80,2013-02-26 08:51:00
2:51 AM,44.1,27.0,51,30.00,10.0,East,8.1,-,N/A,,Clear,100,2013-02-26 09:51:00
3:51 AM,44.1,27.0,51,29.97,10.0,East,9.2,-,N/A,,Clear,90,2013-02-26 10:51:00
4:51 AM,44.1,26.1,49,29.97,10.0,ESE,6.9,-,N/A,,Clear,110,2013-02-26 11:51:00
5:51 AM,43.0,27.0,53,29.98,10.0,ESE,6.9,-,N/A,,Clear,120,2013-02-26 12:51:00
6:51 AM,42.1,27.0,55,29.99,10.0,East,4.6,-,N/A,,Clear,90,2013-02-26 13:51:00
7:51 AM,45.0,26.1,48,29.99,10.0,SE,8.1,-,N/A,,Clear,140,2013-02-26 14:51:00
8:51 AM,48.9,25.0,39,30.02,10.0,ESE,6.9,-,N/A,,Clear,120,2013-02-26 15:51:00
9:51 AM,53.1,23.0,31,30.02,10.0,ESE,5.8,-,N/A,,Clear,110,2013-02-26 16:51:00
10:51 AM,57.0,21.9,26,30.02,10.0,Calm,Calm,-,N/A,,Clear,0,2013-02-26 17:51:00
11:51 AM,57.9,19.9,23,30.02,10.0,Variable,3.5,-,N/A,,Clear,0,2013-02-26 18:51:00
12:51 PM,62.1,17.1,18,29.99,10.0,West,4.6,-,N/A,,Clear,260,2013-02-26 19:51:00
1:51 PM,63.0,15.1,16,29.96,10.0,WSW,3.5,-,N/A,,Clear,250,2013-02-26 20:51:00
2:51 PM,64.9,16.0,15,29.95,10.0,West,8.1,-,N/A,,Clear,260,2013-02-26 21:51:00
3:51 PM,68.0,14.0,12,29.93,10.0,West,5.8,-,N/A,,Partly Cloudy,260,2013-02-26 22:51:00
4:51 PM,68.0,15.1,13,29.93,10.0,West,11.5,-,N/A,,Partly Cloudy,260,2013-02-26 23:51:00
5:51 PM,66.9,14.0,13,29.92,10.0,WSW,8.1,-,N/A,,Clear,240,2013-02-27 00:51:00
6:51 PM,64.0,16.0,16,29.93,10.0,WSW,6.9,-,N/A,,Clear,250,2013-02-27 01:51:00
7:51 PM,63.0,16.0,16,29.96,10.0,NW,4.6,-,N/A,,Clear,320,2013-02-27 02:51:00
8:51 PM,62.1,16.0,17,29.98,10.0,North,5.8,-,N/A,,Clear,360,2013-02-27 03:51:00
9:51 PM,60.1,9.0,13,30.00,10.0,NNE,10.4,-,N/A,,Clear,20,2013-02-27 04:51:00
10:51 PM,57.9,10.0,15,30.03,10.0,NE,10.4,-,N/A,,Clear,50,2013-02-27 05:51:00
11:51 PM,55.9,8.1,15,30.05,10.0,ENE,9.2,-,N/A,,Clear,60,2013-02-27 06:51:00